Weather History for Mankato, MN

Change the Weather History Date:

Thursday, November 29, 2012

  Actual Average Record
Temperature  
Mean Temperature 33 °F -  
Max Temperature 42 °F 34 °F 62 °F (1998)
Min Temperature 24 °F 21 °F 8 °F (2007)
Degree Days  
Heating Degree Days 32    
Moisture  
Dew Point 23 °F    
Average Humidity 66    
Maximum Humidity 86    
Minimum Humidity 53    
Precipitation  
Precipitation 0.02 in - - ()
Sea Level Pressure  
Sea Level Pressure 30.03 in    
Wind  
Wind Speed 8 mph (East)    
Max Wind Speed 16 mph    
Max Gust Speed 21 mph    
Visibility 10 miles    
Events      
Averages and records for this station are not official NWS values.
T = Trace of Precipitation, MM = Missing Value Source: NWS Daily Summary

Daily Weather History Graph

Daily Weather History Graph

Search for Another Location

Airport:

Trip Planner

Search our weather history database for the weather conditions in past years. The results will help you decide how hot, cold, wet, or windy it might be!

Date:

Astronomy

Nov. 29, 2012 Rise Set
Actual Time 7:29 AM CST 4:38 PM CST
Civil Twilight 6:56 AM CST 5:11 PM CST
Nautical Twilight 6:20 AM CST 5:47 PM CST
Astronomical Twilight 5:46 AM CST 6:22 PM CST
Moon 5:42 PM CST (11/29) 8:16 AM CST (11/29)
Length of Visible Light 10h 14m
Length of Day
9h 09m
Full, 99% of the Moon is Illuminated
Nov 29
Full
Dec 6
Last Quarter
Dec 13
New
Dec 19
First Quarter
Dec 28
Full

Hourly Weather History & Observations

Time (CST) Temp. Windchill Dew Point Humidity Pressure Visibility Wind Dir Wind Speed Gust Speed Precip Events Conditions
12:15 AM 30.2 °F 23.4 °F 21.2 °F 69% 30.06 in 10.0 mi South 6.9 mph - N/A   Clear
12:35 AM 30.2 °F 22.6 °F 19.4 °F 64% 30.06 in 10.0 mi SSE 8.1 mph - N/A   Clear
12:55 AM 30.2 °F 23.4 °F 19.4 °F 64% 30.05 in 10.0 mi South 6.9 mph - N/A   Clear
1:15 AM 30.2 °F 22.6 °F 19.4 °F 64% 30.04 in 10.0 mi South 8.1 mph - N/A   Clear
1:35 AM 30.2 °F 24.3 °F 19.4 °F 64% 30.04 in 10.0 mi South 5.8 mph - N/A   Clear
1:55 AM 30.2 °F 23.4 °F 19.4 °F 64% 30.04 in 10.0 mi South 6.9 mph - N/A   Clear
2:15 AM 28.4 °F 23.3 °F 19.4 °F 69% 30.04 in 10.0 mi South 4.6 mph - N/A   Clear
2:35 AM 28.4 °F 22.2 °F 19.4 °F 69% 30.05 in 10.0 mi South 5.8 mph - N/A   Clear
2:55 AM 28.4 °F 22.2 °F 19.4 °F 69% 30.05 in 10.0 mi South 5.8 mph - N/A   Clear
3:15 AM 28.4 °F 22.2 °F 19.4 °F 69% 30.04 in 10.0 mi South 5.8 mph - N/A   Clear
3:35 AM 26.6 °F 20.0 °F 19.4 °F 74% 30.04 in 10.0 mi SSE 5.8 mph - N/A   Clear
4:15 AM 26.6 °F 20.0 °F 19.4 °F 74% 30.03 in 10.0 mi SSE 5.8 mph - N/A   Clear
4:35 AM 24.8 °F 17.9 °F 19.4 °F 80% 30.03 in 10.0 mi SSE 5.8 mph - N/A   Clear
4:55 AM 26.6 °F 20.0 °F 19.4 °F 74% 30.02 in 10.0 mi SSE 5.8 mph - N/A   Clear
5:15 AM 24.8 °F 17.9 °F 19.4 °F 80% 30.02 in 10.0 mi SSE 5.8 mph - N/A   Clear
5:35 AM 24.8 °F 16.9 °F 17.6 °F 74% 30.03 in 10.0 mi SSE 6.9 mph - N/A   Clear
5:55 AM 24.8 °F 17.9 °F 19.4 °F 80% 30.04 in 10.0 mi SSE 5.8 mph - N/A   Clear
6:15 AM 24.8 °F 17.9 °F 19.4 °F 80% 30.04 in 10.0 mi SSE 5.8 mph - N/A   Clear
6:35 AM 24.8 °F 17.9 °F 21.2 °F 86% 30.04 in 10.0 mi SSE 5.8 mph - N/A   Clear
6:55 AM 24.8 °F 17.9 °F 19.4 °F 80% 30.03 in 10.0 mi SE 5.8 mph - N/A   Clear
7:15 AM 24.8 °F 20.5 °F 19.4 °F 80% 30.04 in 10.0 mi SE 3.5 mph - N/A   Clear
7:35 AM 24.8 °F 20.5 °F 19.4 °F 80% 30.04 in 10.0 mi SE 3.5 mph - N/A   Clear
7:55 AM 24.8 °F 20.5 °F 19.4 °F 80% 30.04 in 9.0 mi ESE 3.5 mph - N/A   Clear
8:15 AM 24.8 °F 19.1 °F 21.2 °F 86% 30.05 in 9.0 mi East 4.6 mph - N/A   Clear
8:35 AM 26.6 °F 21.2 °F 21.2 °F 80% 30.05 in 8.0 mi East 4.6 mph - N/A   Clear
8:55 AM 28.4 °F 22.2 °F 23.0 °F 80% 30.05 in 8.0 mi East 5.8 mph - N/A   Clear
9:15 AM 28.4 °F 23.3 °F 23.0 °F 80% 30.05 in 9.0 mi East 4.6 mph - N/A   Clear
9:35 AM 30.2 °F 25.4 °F 23.0 °F 75% 30.05 in 10.0 mi East 4.6 mph - N/A   Clear
10:15 AM 33.8 °F 28.6 °F 24.8 °F 70% 30.05 in 10.0 mi ENE 5.8 mph - N/A   Clear
10:35 AM 35.6 °F 28.6 °F 24.8 °F 65% 30.05 in 10.0 mi ENE 9.2 mph - N/A   Clear
10:55 AM 35.6 °F 28.6 °F 24.8 °F 65% 30.05 in 10.0 mi ENE 9.2 mph - N/A   Clear
11:15 AM 37.4 °F 32.1 °F 24.8 °F 60% 30.05 in 10.0 mi East 6.9 mph - N/A   Clear
11:35 AM 39.2 °F 32.5 °F 24.8 °F 56% 30.04 in 10.0 mi East 10.4 mph - N/A   Clear
11:55 AM 39.2 °F 32.5 °F 24.8 °F 56% 30.03 in 10.0 mi East 10.4 mph - N/A   Clear
12:15 PM 39.2 °F 32.5 °F 24.8 °F 56% 30.02 in 10.0 mi East 10.4 mph - N/A   Clear
12:35 PM 39.2 °F 32.5 °F 24.8 °F 56% 30.01 in 10.0 mi East 10.4 mph - N/A   Clear
12:55 PM 41.0 °F 36.4 °F 26.6 °F 57% 30.02 in 10.0 mi East 6.9 mph - N/A   Clear
1:15 PM 42.8 °F 38.6 °F 26.6 °F 53% 30.02 in 10.0 mi ENE 6.9 mph - N/A   Clear
1:35 PM 42.8 °F 38.0 °F 26.6 °F 53% 30.02 in 10.0 mi ENE 8.1 mph - N/A   Clear
1:55 PM 42.8 °F 38.0 °F 26.6 °F 53% 30.01 in 10.0 mi NE 8.1 mph - N/A   Clear
2:15 PM 42.8 °F 37.5 °F 26.6 °F 53% 29.99 in 10.0 mi ENE 9.2 mph - N/A   Clear
2:35 PM 42.8 °F 37.5 °F 26.6 °F 53% 30.00 in 10.0 mi ENE 9.2 mph - N/A   Clear
2:55 PM 42.8 °F 36.6 °F 26.6 °F 53% 29.99 in 10.0 mi ENE 11.5 mph - N/A   Clear
3:15 PM 42.8 °F 38.0 °F 26.6 °F 53% 29.99 in 10.0 mi ENE 8.1 mph - N/A   Clear
3:35 PM 42.8 °F 37.5 °F 26.6 °F 53% 30.00 in 10.0 mi ENE 9.2 mph - N/A   Clear
3:55 PM 42.8 °F 37.5 °F 26.6 °F 53% 30.01 in 10.0 mi ENE 9.2 mph - N/A   Clear
4:15 PM 41.0 °F 35.8 °F 26.6 °F 57% 30.01 in 10.0 mi ENE 8.1 mph - N/A   Clear
4:35 PM 39.2 °F 32.5 °F 26.6 °F 61% 30.01 in 10.0 mi NE 10.4 mph - N/A   Clear
4:55 PM 39.2 °F 32.5 °F 24.8 °F 56% 30.01 in 10.0 mi ENE 10.4 mph - N/A   Clear
5:15 PM 39.2 °F 32.0 °F 24.8 °F 56% 30.01 in 10.0 mi ENE 11.5 mph - N/A   Clear
5:35 PM 37.4 °F 29.8 °F 24.8 °F 60% 30.01 in 10.0 mi ENE 11.5 mph - N/A   Clear
5:55 PM 37.4 °F 30.3 °F 24.8 °F 60% 30.01 in 10.0 mi ENE 10.4 mph - N/A   Clear
6:15 PM 37.4 °F 30.3 °F 24.8 °F 60% 30.02 in 10.0 mi ENE 10.4 mph - N/A   Clear
6:35 PM 37.4 °F 28.9 °F 24.8 °F 60% 30.01 in 10.0 mi East 13.8 mph - N/A   Clear
6:55 PM 37.4 °F 30.8 °F 24.8 °F 60% 30.04 in 10.0 mi ENE 9.2 mph - N/A   Clear
7:15 PM 37.4 °F 30.8 °F 24.8 °F 60% 30.04 in 10.0 mi ENE 9.2 mph - N/A   Clear
7:35 PM 37.4 °F 31.4 °F 24.8 °F 60% 30.04 in 10.0 mi ENE 8.1 mph - N/A   Clear
7:55 PM 37.4 °F 30.3 °F 24.8 °F 60% 30.05 in 10.0 mi NE 10.4 mph - N/A   Clear
8:15 PM 35.6 °F 29.2 °F 24.8 °F 65% 30.04 in 10.0 mi ENE 8.1 mph - N/A   Clear
8:35 PM 35.6 °F 27.5 °F 24.8 °F 65% 30.04 in 10.0 mi ENE 11.5 mph - N/A   Clear
8:55 PM 35.6 °F 27.5 °F 24.8 °F 65% 30.03 in 10.0 mi East 11.5 mph - N/A   Clear
9:15 PM 35.6 °F 27.5 °F 24.8 °F 65% 30.03 in 10.0 mi East 11.5 mph - N/A   Clear
9:35 PM 35.6 °F 26.6 °F 24.8 °F 65% 30.02 in 10.0 mi ENE 13.8 mph - N/A   Clear
9:55 PM 35.6 °F 26.6 °F 24.8 °F 65% 30.02 in 10.0 mi ENE 13.8 mph 18.4 mph N/A   Clear
10:15 PM 35.6 °F 25.9 °F 24.8 °F 65% 30.01 in 10.0 mi ENE 16.1 mph 20.7 mph N/A   Clear
10:35 PM 35.6 °F 27.1 °F 24.8 °F 65% 30.03 in 10.0 mi ENE 12.7 mph - N/A   Scattered Clouds
10:55 PM 35.6 °F 27.5 °F 24.8 °F 65% 30.03 in 10.0 mi ENE 11.5 mph - N/A   Overcast
11:15 PM 35.6 °F 28.0 °F 24.8 °F 65% 30.03 in 10.0 mi East 10.4 mph - N/A   Mostly Cloudy
11:35 PM 33.8 °F 25.3 °F 24.8 °F 70% 30.03 in 10.0 mi East 11.5 mph - N/A   Partly Cloudy
11:55 PM 33.8 °F 24.8 °F 24.8 °F 70% 30.02 in 10.0 mi East 12.7 mph - N/A   Partly Cloudy